Location: 01445 Radebeul, Deutschland
(51.1161°N, 13.6224°E)
Time: 02:33:19
(UTC+02:00)

Tiangong 2 - Visible Passes

Search period start: 22 May 2018 00:00
Search period end: 01 June 2018 00:00
Orbit: 382 x 385 km, 42.8° (Epoch: 21 May)

Date Brightness Start Highest point End Pass type
(mag) Time Alt. Az. Time Alt. Az. Time Alt. Az.
22 May 3.2 22:00:52 10° S 22:01:36 11° SSE 22:01:47 11° SSE visible
23 May 2.8 22:35:57 10° SSW 22:37:44 16° S 22:37:44 16° S visible
24 May 3.1 23:12:14 10° SW 23:13:16 15° SSW 23:13:16 15° SSW visible
25 May 2.7 22:12:39 10° SW 22:14:54 18° S 22:16:21 14° SE visible
26 May 2.8 22:49:13 10° SW 22:51:22 17° S 22:51:28 17° S visible
27 May 2.8 21:49:30 10° SW 21:51:45 18° S 21:54:01 10° SE visible
28 May 3.1 22:26:20 10° SW 22:28:11 15° SSW 22:29:15 13° S visible
30 May 3.4 22:03:44 10° SW 22:04:57 12° SSW 22:06:09 10° S visible
